• In Romania
  • List of Countries
  • For 7 days
  • Water Temperature
  • Satellite Maps
  • Weather Map
  • Weather Widgets
  • user-avatar
    Login

    Hourly Weather Shaki

    Today, 20 July, Friday

    Time Temperature Precipitation Wind Pressure Humidity
    00:00 +29°C° 0 mm 2 mps 727 mmHg 20%
    01:00 +29°C° 0 mm 2 mps 727 mmHg 21%
    02:00 +29°C° 0 mm 2 mps 727 mmHg 23%
    03:00 +28°C° 0 mm 2 mps 727 mmHg 24%
    04:00 +29°C° 0 mm 2 mps 728 mmHg 26%
    05:00 +29°C° 0 mm 2 mps 728 mmHg 27%
    06:00 +30°C° 0 mm 2 mps 728 mmHg 29%
    07:00 +31°C° 0 mm 2 mps 728 mmHg 27%
    08:00 +34°C° 0 mm 2 mps 728 mmHg 25%
    09:00 +36°C° 0 mm 2 mps 728 mmHg 23%
    10:00 +37°C° 0 mm 2 mps 728 mmHg 23%
    11:00 +38°C° 0 mm 2 mps 727 mmHg 22%
    12:00 +39°C° 0 mm 2 mps 727 mmHg 21%
    13:00 +39°C° 0 mm 2 mps 727 mmHg 21%
    14:00 +39°C° 0 mm 2 mps 727 mmHg 20%
    15:00 +40°C° 0 mm 2 mps 727 mmHg 20%
    16:00 +39°C° 0 mm 2 mps 727 mmHg 21%
    17:00 +38°C° 0 mm 2 mps 727 mmHg 21%
    18:00 +38°C° 0 mm 2 mps 727 mmHg 22%
    19:00 +36°C° 0 mm 3 mps 727 mmHg 25%
    20:00 +33°C° 0 mm 3 mps 727 mmHg 29%
    21:00 +30°C° 0 mm 3 mps 728 mmHg 32%
    22:00 +30°C° 0 mm 3 mps 728 mmHg 35%
    23:00 +29°C° 0 mm 3 mps 728 mmHg 38%

    Tomorrow, 21 July, Saturday

    Time Temperature Precipitation Wind Pressure Humidity
    00:00 +28°C° 0 mm 2 mps 728 mmHg 40%
    01:00 +28°C° 0.1 mm 2 mps 728 mmHg 41%
    02:00 +28°C° 0.1 mm 2 mps 728 mmHg 41%
    03:00 +27°C° 0.1 mm 1 mps 728 mmHg 42%
    04:00 +28°C° 0 mm 2 mps 729 mmHg 41%
    05:00 +28°C° 0 mm 2 mps 729 mmHg 41%
    06:00 +29°C° 0 mm 2 mps 729 mmHg 41%
    07:00 +30°C° 0 mm 2 mps 729 mmHg 37%
    08:00 +32°C° 0 mm 2 mps 729 mmHg 34%
    09:00 +34°C° 0 mm 2 mps 729 mmHg 31%
    10:00 +35°C° 0 mm 2 mps 729 mmHg 30%
    11:00 +36°C° 0 mm 2 mps 729 mmHg 29%
    12:00 +37°C° 0 mm 2 mps 729 mmHg 28%
    13:00 +38°C° 0 mm 2 mps 729 mmHg 28%
    14:00 +38°C° 0 mm 2 mps 729 mmHg 28%
    15:00 +38°C° 0 mm 2 mps 728 mmHg 28%
    16:00 +38°C° 0.1 mm 2 mps 728 mmHg 29%
    17:00 +37°C° 0.1 mm 2 mps 728 mmHg 30%
    18:00 +36°C° 0.1 mm 2 mps 729 mmHg 32%
    19:00 +34°C° 0.4 mm 2 mps 729 mmHg 35%
    20:00 +31°C° 0.4 mm 2 mps 730 mmHg 38%
    21:00 +29°C° 0.4 mm 2 mps 730 mmHg 41%
    22:00 +28°C° 0.1 mm 2 mps 730 mmHg 44%
    23:00 +28°C° 0.1 mm 2 mps 730 mmHg 47%

    Day after tomorrow, 22 July, Sunday

    Time Temperature Precipitation Wind Pressure Humidity
    00:00 +27°C° 0.1 mm 2 mps 730 mmHg 50%
    01:00 +27°C° 0 mm 2 mps 730 mmHg 52%
    02:00 +27°C° 0 mm 2 mps 730 mmHg 53%
    03:00 +27°C° 0 mm 2 mps 730 mmHg 55%
    04:00 +27°C° 0 mm 2 mps 731 mmHg 54%
    05:00 +28°C° 0 mm 2 mps 731 mmHg 53%
    06:00 +28°C° 0 mm 2 mps 731 mmHg 51%
    07:00 +30°C° 0 mm 2 mps 731 mmHg 47%
    08:00 +31°C° 0 mm 2 mps 731 mmHg 43%
    09:00 +32°C° 0 mm 2 mps 731 mmHg 39%
    10:00 +34°C° 0.1 mm 2 mps 731 mmHg 38%
    11:00 +35°C° 0.1 mm 2 mps 730 mmHg 37%
    12:00 +36°C° 0.1 mm 2 mps 730 mmHg 35%
    13:00 +36°C° 0.1 mm 2 mps 730 mmHg 34%
    14:00 +37°C° 0.1 mm 2 mps 729 mmHg 32%
    15:00 +38°C° 0.1 mm 3 mps 729 mmHg 31%
    16:00 +37°C° 0 mm 3 mps 729 mmHg 31%
    17:00 +37°C° 0 mm 3 mps 729 mmHg 31%
    18:00 +36°C° 0 mm 3 mps 729 mmHg 32%
    19:00 +34°C° 0 mm 3 mps 729 mmHg 35%
    20:00 +31°C° 0 mm 3 mps 730 mmHg 38%
    21:00 +30°C° 0 mm 3 mps 730 mmHg 41%
    22:00 +29°C° 0 mm 3 mps 730 mmHg 43%
    23:00 +28°C° 0 mm 3 mps 730 mmHg 45%

    23 July, Monday

    Time Temperature Precipitation Wind Pressure Humidity
    00:00 +28°C° 0 mm 2 mps 730 mmHg 47%
    01:00 +27°C° 0 mm 2 mps 730 mmHg 47%
    02:00 +27°C° 0 mm 2 mps 729 mmHg 48%
    03:00 +27°C° 0 mm 2 mps 729 mmHg 49%
    04:00 +27°C° 0 mm 2 mps 730 mmHg 48%
    05:00 +28°C° 0 mm 1 mps 730 mmHg 47%
    06:00 +28°C° 0 mm 1 mps 730 mmHg 46%
    07:00 +30°C° 0 mm 2 mps 730 mmHg 43%
    08:00 +31°C° 0 mm 2 mps 730 mmHg 39%
    09:00 +34°C° 0 mm 2 mps 730 mmHg 36%
    10:00 +35°C° 0.1 mm 2 mps 729 mmHg 34%
    11:00 +35°C° 0.1 mm 2 mps 729 mmHg 32%
    12:00 +36°C° 0.1 mm 2 mps 728 mmHg 31%
    13:00 +37°C° 0.1 mm 2 mps 728 mmHg 30%
    14:00 +37°C° 0.1 mm 2 mps 728 mmHg 29%
    15:00 +38°C° 0.1 mm 2 mps 727 mmHg 28%
    16:00 +37°C° 0 mm 2 mps 727 mmHg 28%
    17:00 +37°C° 0 mm 2 mps 727 mmHg 29%
    18:00 +37°C° 0 mm 2 mps 727 mmHg 29%
    19:00 +35°C° 0 mm 2 mps 728 mmHg 31%
    20:00 +33°C° 0 mm 3 mps 728 mmHg 32%
    21:00 +30°C° 0 mm 3 mps 728 mmHg 34%
    22:00 +30°C° 0.1 mm 3 mps 729 mmHg 35%
    23:00 +29°C° 0.1 mm 2 mps 729 mmHg 36%

    24 July, Tuesday

    Time Temperature Precipitation Wind Pressure Humidity
    00:00 +29°C° 0.1 mm 2 mps 729 mmHg 37%
    01:00 +28°C° 0.1 mm 2 mps 729 mmHg 38%
    02:00 +28°C° 0.1 mm 2 mps 729 mmHg 40%
    03:00 +27°C° 0.1 mm 2 mps 729 mmHg 41%
    04:00 +28°C° 0 mm 2 mps 729 mmHg 42%
    05:00 +28°C° 0 mm 2 mps 729 mmHg 43%
    06:00 +28°C° 0 mm 2 mps 729 mmHg 43%
    07:00 +30°C° 0 mm 3 mps 729 mmHg 40%
    08:00 +33°C° 0 mm 3 mps 729 mmHg 36%
    09:00 +34°C° 0 mm 3 mps 729 mmHg 32%
    10:00 +35°C° 0 mm 3 mps 729 mmHg 31%
    11:00 +36°C° 0 mm 3 mps 729 mmHg 29%
    12:00 +37°C° 0 mm 2 mps 729 mmHg 27%
    13:00 +38°C° 0 mm 2 mps 728 mmHg 27%
    14:00 +38°C° 0 mm 2 mps 728 mmHg 26%
    15:00 +39°C° 0 mm 1 mps 728 mmHg 25%
    16:00 +37°C° 0 mm 1 mps 728 mmHg 27%
    17:00 +36°C° 0 mm 1 mps 729 mmHg 28%
    18:00 +36°C° 0 mm 1 mps 729 mmHg 29%
    19:00 +35°C° 0 mm 2 mps 729 mmHg 30%
    20:00 +32°C° 0 mm 2 mps 730 mmHg 32%
    21:00 +31°C° 0 mm 2 mps 730 mmHg 34%
    22:00 +30°C° 0 mm 2 mps 730 mmHg 35%
    23:00 +30°C° 0 mm 2 mps 730 mmHg 35%

    25 July, Wednesday

    Time Temperature Precipitation Wind Pressure Humidity
    00:00 +29°C° 0 mm 2 mps 730 mmHg 36%
    01:00 +29°C° 0 mm 2 mps 730 mmHg 37%
    02:00 +28°C° 0 mm 2 mps 730 mmHg 38%
    03:00 +28°C° 0 mm 2 mps 730 mmHg 38%
    04:00 +29°C° 0 mm 1 mps 730 mmHg 38%
    05:00 +29°C° 0 mm 1 mps 730 mmHg 38%
    06:00 +30°C° 0 mm 1 mps 730 mmHg 38%
    07:00 +32°C° 0 mm 1 mps 730 mmHg 35%
    08:00 +33°C° 0 mm 1 mps 730 mmHg 32%
    09:00 +35°C° 0 mm 1 mps 730 mmHg 30%
    10:00 +37°C° 0 mm 2 mps 730 mmHg 28%
    11:00 +38°C° 0 mm 2 mps 729 mmHg 27%
    12:00 +39°C° 0 mm 2 mps 729 mmHg 26%
    13:00 +40°C° 0 mm 2 mps 729 mmHg 25%
    14:00 +40°C° 0 mm 2 mps 728 mmHg 24%
    15:00 +42°C° 0 mm 3 mps 728 mmHg 24%
    16:00 +40°C° 0 mm 3 mps 728 mmHg 24%
    17:00 +40°C° 0 mm 3 mps 728 mmHg 25%
    18:00 +39°C° 0 mm 3 mps 728 mmHg 26%
    19:00 +37°C° 0 mm 3 mps 729 mmHg 28%
    20:00 +35°C° 0 mm 4 mps 729 mmHg 31%
    21:00 +33°C° 0 mm 4 mps 729 mmHg 33%
    22:00 +33°C° 0 mm 4 mps 729 mmHg 35%
    23:00 +31°C° 0 mm 3 mps 729 mmHg 36%
    Show more